This is the latest recevied weather packets stored in our database for station/object AA0PB. If no packets are shown the sender has not sent any weather packets the latest 10 day(s).
| Time | Temp. | Humidity | Pressure | Rain* | Wind** | Luminosity | Snow |
|---|---|---|---|---|---|---|---|
| 1777956329 | 16.67° C | 74% | 1012.8 hPa | 0 mm | - | 0 W/m² | - |
| 1777956025 | 16.67° C | 74% | 1012.4 hPa | 0 mm | - | 0 W/m² | - |
| 1777955721 | 16.67° C | 74% | 1012.8 hPa | 0 mm | - | 0 W/m² | - |
| 1777955419 | 16.67° C | 75% | 1012.6 hPa | 0 mm | - | 0 W/m² | - |
| 1777955114 | 17.22° C | 75% | 1012.7 hPa | 0 mm | - | 0 W/m² | - |
| 1777954812 | 17.22° C | 75% | 1012.7 hPa | 0 mm | - | 0 W/m² | - |
| 1777954508 | 17.78° C | 74% | 1012.4 hPa | 0 mm | - | 0 W/m² | - |
| 1777954206 | 17.78° C | 73% | 1012.2 hPa | 0 mm | - | 0 W/m² | - |
| 1777953903 | 17.78° C | 72% | 1012 hPa | 0 mm | - | 0 W/m² | - |
| 1777953600 | 18.33° C | 73% | 1012.1 hPa | 0 mm | - | 0 W/m² | - |
| 1777953295 | 18.33° C | 71% | 1012 hPa | 0 mm | - | 0 W/m² | - |
| 1777952993 | 18.89° C | 72% | 1012 hPa | 0 mm | - | 0 W/m² | - |
| 1777952689 | 18.33° C | 72% | 1012.1 hPa | 0 mm | - | 0 W/m² | - |
| 1777952387 | 18.89° C | 73% | 1011.9 hPa | 0 mm | - | 0 W/m² | - |
| 1777952083 | 18.89° C | 72% | 1011.7 hPa | 0 mm | - | 1 W/m² | - |
| 1777951782 | 19.44° C | 72% | 1011.6 hPa | 0 mm | - | 2 W/m² | - |
| 1777951479 | 20° C | 71% | 1011.5 hPa | 0 mm | - | 3 W/m² | - |
| 1777951175 | 20.56° C | 69% | 1011.4 hPa | 0 mm | - | 5 W/m² | - |
| 1777950872 | 20.56° C | 68% | 1011.5 hPa | 0 mm | - | 7 W/m² | - |
| 1777950569 | 20.56° C | 68% | 1011.3 hPa | 0 mm | - | 9 W/m² | - |
| 1777950265 | 20.56° C | 67% | 1011.4 hPa | 0 mm | - | 12 W/m² | - |
| 1777949960 | 21.11° C | 67% | 1011.3 hPa | 0 mm | - | 15 W/m² | - |
| 1777949658 | 21.67° C | 66% | 1011.1 hPa | 0 mm | - | 18 W/m² | - |
| 1777949357 | 21.67° C | 65% | 1011.3 hPa | 0 mm | - | 21 W/m² | - |
| 1777949054 | 22.22° C | 64% | 1011.2 hPa | 0 mm | - | 23 W/m² | - |
* Rain latest hour (hover to see other rain measurements)
** Current wind speed in m/s (hover to see current wind gust speed)